| time (UTC) | temp F | wind direction | speed knots | gust knots | rain 1hr in | rain 24hr in | rain mn in | humidity % | barometer mb |
| 20260906204641 | 73 | 315 | 13.9 | 19.1 | 0.00 | 0.00 | 0.00 | 82 | 1016.4 |
| 20260906203057 | 75 | 350 | 9.6 | 13.9 | 0.00 | 0.00 | 0.00 | 79 | 1016.3 |
| 20260906201620 | 76 | 39 | 4.3 | 9.6 | 0.00 | 0.00 | 0.00 | 79 | 1015.8 |
| 20260906200100 | 76 | 86 | 5.2 | 10.4 | 0.00 | 0.00 | 0.00 | 79 | 1015.8 |
| 20260906194605 | 77 | 105 | 10.4 | 20.0 | 0.00 | 0.00 | 0.00 | 77 | 1014.9 |
| 20260906193109 | 76 | 92 | 10.4 | 17.4 | 0.00 | 0.00 | 0.00 | 76 | 1014.5 |
| 20260906191621 | 76 | 49 | 13.9 | 18.2 | 0.00 | 0.00 | 0.00 | 77 | 1014.6 |
| 20260906184559 | 76 | 119 | 7.0 | 13.0 | 0.00 | 0.00 | 0.00 | 77 | 1015.2 |
| 20260906183104 | 76 | 53 | 5.2 | 12.2 | 0.00 | 0.00 | 0.00 | 77 | 1015.5 |
| 20260906181559 | 76 | 78 | 6.1 | 13.0 | 0.00 | 0.00 | 0.00 | 78 | 1015.7 |
| 20260906174612 | 74 | 57 | 9.6 | 13.9 | 0.00 | 0.00 | 0.00 | 1015.9 | |
| 20260906173100 | 73 | 64 | 7.0 | 10.4 | 0.00 | 0.00 | 0.00 | 1016.7 | |
| 20260906171600 | 71 | 96 | 5.2 | 11.3 | 0.00 | 0.00 | 0.00 | 1017.1 | |
| 20260906170114 | 70 | 55 | 5.2 | 9.6 | 0.00 | 0.00 | 0.00 | 1017.3 | |
| 20260906164604 | 70 | 85 | 6.1 | 10.4 | 0.00 | 0.00 | 0.00 | 1017.3 | |
| 20260906163100 | 69 | 75 | 3.5 | 7.8 | 0.00 | 0.00 | 0.00 | 1017.5 | |
| 20260906161607 | 68 | 33 | 3.5 | 7.0 | 0.00 | 0.00 | 0.00 | 1017.5 | |
| 20260906160057 | 67 | 17 | 0.9 | 4.3 | 0.00 | 0.00 | 0.00 | 1018.0 | |
| 20260906154556 | 67 | 86 | 0.0 | 2.6 | 0.00 | 0.00 | 0.00 | 1018.0 | |
| 20260906153121 | 66 | 86 | 1.7 | 2.6 | 0.00 | 0.00 | 0.00 | 1017.8 | |
| 20260906151601 | 66 | 72 | 2.6 | 4.3 | 0.00 | 0.00 | 0.00 | 1017.6 | |
| 20260906150104 | 65 | 36 | 2.6 | 3.5 | 0.00 | 0.00 | 0.00 | 1017.5 | |
| 20260906144605 | 65 | 352 | 0.9 | 4.3 | 0.00 | 0.01 | 0.00 | 1017.4 | |
| 20260906143107 | 64 | 27 | 0.9 | 2.6 | 0.00 | 0.01 | 0.00 | 1017.5 | |
| 20260906141610 | 63 | 148 | 0.0 | 0.9 | 0.00 | 0.01 | 0.00 | 1017.6 | |
| 20260906140109 | 63 | 148 | 0.0 | 4.3 | 0.00 | 0.01 | 0.00 | 1017.6 | |
| 20260906134622 | 63 | 131 | 1.7 | 6.1 | 0.00 | 0.13 | 0.00 | 99 | 1017.6 |
| 20260906133104 | 62 | 145 | 1.7 | 3.5 | 0.00 | 0.13 | 0.00 | 99 | 1017.7 |
| 20260906131556 | 61 | 149 | 1.7 | 5.2 | 0.00 | 0.13 | 0.00 | 99 | 1017.6 |
| 20260906130104 | 60 | 0 | 0.0 | 4.3 | 0.00 | 0.13 | 0.00 | 99 | 1017.2 |
| 20260906124607 | 59 | 36 | 0.9 | 4.3 | 0.00 | 0.21 | 0.00 | 99 | 1017.2 |
| 20260906123059 | 59 | 53 | 1.7 | 4.3 | 0.00 | 0.21 | 0.00 | 98 | 1017.2 |
| 20260906121602 | 58 | 348 | 2.6 | 4.3 | 0.00 | 0.21 | 0.00 | 98 | 1017.3 |
| 20260906120108 | 58 | 333 | 3.5 | 5.2 | 0.00 | 0.21 | 0.00 | 98 | 1017.3 |
| 20260906114622 | 58 | 313 | 0.0 | 2.6 | 0.00 | 0.21 | 0.00 | 98 | 1017.4 |
| 20260906113104 | 58 | 0 | 0.0 | 1.7 | 0.00 | 0.21 | 0.00 | 98 | 1017.4 |
| 20260906111624 | 58 | 0 | 0.0 | 0.0 | 0.00 | 0.21 | 0.00 | 98 | 1017.2 |
| 20260906110056 | 58 | 0 | 0.0 | 1.7 | 0.00 | 0.21 | 0.00 | 98 | 1017.2 |
| 20260906104606 | 58 | 340 | 1.7 | 3.5 | 0.00 | 0.21 | 0.00 | 98 | 1017.1 |
| 20260906103107 | 58 | 0 | 0.0 | 2.6 | 0.00 | 0.21 | 0.00 | 98 | 1016.7 |
| 20260906101557 | 58 | 28 | 1.7 | 3.5 | 0.00 | 0.21 | 0.00 | 97 | 1016.7 |
| 20260906094558 | 58 | 0 | 0.0 | 1.7 | 0.00 | 0.21 | 0.00 | 97 | 1016.6 |
| 20260906093105 | 58 | 63 | 0.0 | 2.6 | 0.00 | 0.21 | 0.00 | 98 | 1016.5 |
| 20260906091604 | 59 | 0 | 0.0 | 2.6 | 0.00 | 0.21 | 0.00 | 97 | 1016.6 |
| 20260906090116 | 60 | 352 | 0.0 | 2.6 | 0.00 | 0.21 | 0.00 | 97 | 1016.5 |
| 20260906084612 | 60 | 0 | 0.9 | 3.5 | 0.00 | 0.21 | 0.00 | 97 | 1016.7 |
| 20260906083103 | 60 | 304 | 1.7 | 4.3 | 0.00 | 0.21 | 0.00 | 97 | 1016.6 |
| 20260906081601 | 60 | 331 | 1.7 | 3.5 | 0.00 | 0.21 | 0.00 | 97 | 1016.6 |
| 20260906074607 | 61 | 0 | 0.0 | 3.5 | 0.00 | 0.21 | 0.00 | 97 | 1016.4 |
| 20260906073108 | 61 | 115 | 1.7 | 5.2 | 0.00 | 0.21 | 0.00 | 96 | 1016.0 |
| 20260906071558 | 61 | 126 | 3.5 | 7.0 | 0.00 | 0.21 | 0.00 | 96 | 1016.0 |
| 20260906070114 | 62 | 153 | 2.6 | 4.3 | 0.00 | 0.21 | 0.00 | 96 | 1016.1 |
| 20260906064600 | 61 | 140 | 1.7 | 5.2 | 0.00 | 0.21 | 0.00 | 96 | 1016.1 |
| 20260906063101 | 61 | 126 | 1.7 | 3.5 | 0.00 | 0.21 | 0.00 | 95 | 1016.1 |
| 20260906061625 | 61 | 92 | 2.6 | 6.1 | 0.00 | 0.21 | 0.00 | 95 | 1016.3 |
| 20260906060109 | 62 | 85 | 1.7 | 4.3 | 0.00 | 0.21 | 0.00 | 94 | 1016.4 |
| 20260906054559 | 62 | 76 | 4.3 | 7.8 | 0.00 | 0.21 | 0.00 | 94 | 1016.3 |
| 20260906053058 | 64 | 32 | 0.9 | 3.5 | 0.00 | 0.21 | 0.00 | 94 | 1016.3 |
| 20260906051556 | 63 | 163 | 2.6 | 4.3 | 0.00 | 0.21 | 0.00 | 94 | 1016.4 |
| 20260906050116 | 63 | 163 | 0.9 | 3.5 | 0.00 | 0.21 | 0.00 | 94 | 1016.3 |
| 20260906044600 | 63 | 163 | 0.9 | 3.5 | 0.00 | 0.21 | 0.21 | 92 | 1016.4 |
| 20260906043111 | 65 | 163 | 0.9 | 1.7 | 0.00 | 0.21 | 0.21 | 92 | 1016.3 |
| 20260906041601 | 65 | 163 | 0.0 | 4.3 | 0.00 | 0.21 | 0.21 | 91 | 1016.2 |
| 20260906040115 | 66 | 175 | 2.6 | 4.3 | 0.00 | 0.21 | 0.21 | 91 | 1016.2 |
| 20260906034602 | 67 | 165 | 1.7 | 5.2 | 0.00 | 0.21 | 0.21 | 91 | 1016.2 |
| 20260906033101 | 67 | 176 | 2.6 | 5.2 | 0.00 | 0.21 | 0.21 | 91 | 1016.1 |
| 20260906031610 | 67 | 167 | 2.6 | 5.2 | 0.00 | 0.21 | 0.21 | 90 | 1016.2 |
| 20260906030108 | 68 | 150 | 3.5 | 7.0 | 0.00 | 0.21 | 0.21 | 90 | 1016.1 |
| 20260906024559 | 68 | 188 | 3.5 | 7.8 | 0.00 | 0.21 | 0.21 | 90 | 1016.1 |
| 20260906023130 | 67 | 149 | 5.2 | 7.8 | 0.00 | 0.21 | 0.21 | 89 | 1016.0 |
| 20260906021608 | 68 | 119 | 3.5 | 6.1 | 0.00 | 0.21 | 0.21 | 88 | 1015.8 |
| 20260906020101 | 68 | 121 | 2.6 | 7.0 | 0.00 | 0.21 | 0.21 | 87 | 1015.8 |
| 20260906014620 | 69 | 103 | 3.5 | 7.8 | 0.00 | 0.21 | 0.21 | 85 | 1015.7 |
| 20260906013100 | 70 | 94 | 3.5 | 7.0 | 0.00 | 0.21 | 0.21 | 83 | 1015.5 |
| 20260906011559 | 71 | 114 | 3.5 | 5.2 | 0.00 | 0.21 | 0.21 | 81 | 1015.4 |
| 20260906010057 | 72 | 139 | 2.6 | 5.2 | 0.00 | 0.21 | 0.21 | 78 | 1015.5 |
| 20260906004614 | 74 | 135 | 1.7 | 4.3 | 0.00 | 0.21 | 0.21 | 75 | 1015.5 |
| 20260906003059 | 75 | 142 | 1.7 | 6.1 | 0.00 | 0.21 | 0.21 | 72 | 1015.2 |
| 20260906001557 | 76 | 163 | 1.7 | 5.2 | 0.00 | 0.21 | 0.21 | 69 | 1015.0 |
| 20260906000110 | 77 | 153 | 2.6 | 6.1 | 0.00 | 0.21 | 0.21 | 67 | 1015.1 |
| 20260905234604 | 78 | 140 | 1.7 | 4.3 | 0.00 | 0.21 | 0.21 | 66 | 1015.0 |
| 20260905233059 | 77 | 169 | 1.7 | 3.5 | 0.00 | 0.21 | 0.21 | 64 | 1014.9 |
| 20260905231603 | 78 | 159 | 2.6 | 5.2 | 0.00 | 0.21 | 0.21 | 64 | 1014.9 |
| 20260905230108 | 78 | 185 | 3.5 | 5.2 | 0.00 | 0.21 | 0.21 | 64 | 1014.7 |
| 20260905224608 | 78 | 171 | 3.5 | 6.1 | 0.00 | 0.21 | 0.21 | 64 | 1014.7 |
| 20260905223106 | 79 | 175 | 2.6 | 7.0 | 0.00 | 0.21 | 0.21 | 63 | 1014.4 |
| 20260905221602 | 79 | 194 | 3.5 | 6.1 | 0.00 | 0.21 | 0.21 | 62 | 1014.5 |
| 20260905220118 | 79 | 186 | 2.6 | 8.7 | 0.00 | 0.21 | 0.21 | 62 | 1014.3 |
| 20260905214606 | 79 | 145 | 6.1 | 13.0 | 0.00 | 0.21 | 0.21 | 63 | 1014.2 |
| 20260905213104 | 78 | 163 | 6.1 | 14.8 | 0.00 | 0.21 | 0.21 | 64 | 1014.2 |
| 20260905211610 | 78 | 155 | 8.7 | 14.8 | 0.00 | 0.21 | 0.21 | 64 | 1014.4 |